| time (UTC) | temp C | wind direction | speed KPH | gust KPH | rain 1hr cm | rain 24hr cm | rain mn cm | humidity % | barometer mb |
| 20260831060037 | 15 | 194 | 11.3 | 16.1 | 0.00 | 0.00 | 0.00 | 80 | 1009.1 |
| 20260831054536 | 15 | 229 | 4.8 | 8.0 | 0.00 | 0.00 | 0.00 | 83 | 1009.1 |
| 20260831053036 | 14 | 217 | 0.0 | 4.8 | 0.00 | 0.00 | 0.00 | 86 | 1008.9 |
| 20260831051540 | 13 | 217 | 0.0 | 1.6 | 0.00 | 0.00 | 0.00 | 87 | 1008.9 |
| 20260831050034 | 13 | 217 | 0.0 | 1.6 | 0.00 | 0.00 | 0.00 | 87 | 1008.9 |
| 20260831044534 | 13 | 217 | 0.0 | 1.6 | 0.00 | 0.00 | 0.00 | 85 | 1009.0 |
| 20260831043031 | 13 | 217 | 0.0 | 1.6 | 0.00 | 0.00 | 0.00 | 85 | 1009.1 |
| 20260831041544 | 14 | 217 | 0.0 | 3.2 | 0.00 | 0.00 | 0.00 | 86 | 1008.9 |
| 20260831040030 | 13 | 217 | 0.0 | 0.0 | 0.00 | 0.00 | 0.00 | 86 | 1008.8 |
| 20260831034527 | 13 | 217 | 0.0 | 3.2 | 0.00 | 0.03 | 0.00 | 86 | 1008.9 |
| 20260831033027 | 13 | 217 | 0.0 | 0.0 | 0.00 | 0.03 | 0.00 | 85 | 1009.4 |
| 20260831031526 | 13 | 217 | 1.6 | 3.2 | 0.00 | 0.03 | 0.00 | 83 | 1009.4 |
| 20260831030019 | 14 | 217 | 0.0 | 0.0 | 0.00 | 0.03 | 0.00 | 81 | 1009.3 |
| 20260831024519 | 15 | 217 | 0.0 | 1.6 | 0.00 | 0.03 | 0.00 | 81 | 1009.5 |
| 20260831023016 | 15 | 217 | 0.0 | 4.8 | 0.00 | 0.03 | 0.00 | 81 | 1009.6 |
| 20260831021526 | 15 | 217 | 0.0 | 3.2 | 0.00 | 0.03 | 0.00 | 81 | 1009.6 |
| 20260831020111 | 15 | 217 | 0.0 | 0.0 | 0.00 | 0.03 | 0.00 | 79 | 1009.8 |
| 20260831014513 | 15 | 217 | 1.6 | 6.4 | 0.00 | 0.03 | 0.00 | 79 | 1009.9 |
| 20260831013009 | 15 | 217 | 0.0 | 3.2 | 0.00 | 0.03 | 0.00 | 79 | 1010.1 |
| 20260831011512 | 16 | 217 | 1.6 | 3.2 | 0.00 | 0.03 | 0.00 | 78 | 1010.3 |
| 20260831010005 | 16 | 217 | 0.0 | 3.2 | 0.00 | 0.03 | 0.00 | 76 | 1010.4 |
| 20260831004559 | 16 | 217 | 0.0 | 4.8 | 0.00 | 0.03 | 0.00 | 74 | 1010.5 |
| 20260831003058 | 17 | 217 | 3.2 | 8.0 | 0.00 | 0.03 | 0.00 | 74 | 1010.6 |
| 20260831001604 | 17 | 217 | 3.2 | 8.0 | 0.00 | 0.03 | 0.00 | 74 | 1010.7 |
| 20260831000056 | 17 | 207 | 4.8 | 9.7 | 0.00 | 0.03 | 0.00 | 73 | 1010.7 |
| 20260830234553 | 17 | 207 | 4.8 | 9.7 | 0.00 | 0.03 | 0.00 | 73 | 1010.8 |
| 20260830233059 | 17 | 244 | 3.2 | 6.4 | 0.00 | 0.03 | 0.00 | 73 | 1010.6 |
| 20260830231600 | 17 | 225 | 6.4 | 11.3 | 0.00 | 0.03 | 0.00 | 73 | 1010.7 |
| 20260830230054 | 17 | 225 | 3.2 | 9.7 | 0.00 | 0.03 | 0.00 | 73 | 1010.7 |
| 20260830224609 | 17 | 244 | 3.2 | 8.0 | 0.00 | 0.03 | 0.00 | 73 | 1010.6 |
| 20260830223054 | 17 | 284 | 1.6 | 4.8 | 0.00 | 0.03 | 0.00 | 74 | 1010.6 |
| 20260830221551 | 17 | 284 | 0.0 | 0.0 | 0.00 | 0.03 | 0.00 | 73 | 1010.7 |
| 20260830220053 | 18 | 284 | 0.0 | 1.6 | 0.00 | 0.03 | 0.00 | 70 | 1010.6 |
| 20260830214554 | 18 | 284 | 1.6 | 4.8 | 0.00 | 0.03 | 0.03 | 69 | 1010.7 |
| 20260830213046 | 18 | 284 | 1.6 | 4.8 | 0.00 | 0.03 | 0.03 | 69 | 1010.8 |
| 20260830211543 | 18 | 284 | 1.6 | 4.8 | 0.00 | 0.03 | 0.03 | 67 | 1010.7 |
| 20260830210042 | 19 | 284 | 3.2 | 4.8 | 0.00 | 0.03 | 0.03 | 66 | 1010.7 |
| 20260830204540 | 19 | 284 | 1.6 | 6.4 | 0.00 | 0.03 | 0.03 | 66 | 1010.7 |
| 20260830203040 | 20 | 287 | 3.2 | 4.8 | 0.00 | 0.03 | 0.03 | 65 | 1010.6 |
| 20260830201541 | 20 | 287 | 1.6 | 4.8 | 0.00 | 0.03 | 0.03 | 64 | 1010.6 |
| 20260830200039 | 20 | 287 | 1.6 | 4.8 | 0.00 | 0.03 | 0.03 | 62 | 1010.6 |
| 20260830194539 | 21 | 287 | 3.2 | 4.8 | 0.00 | 0.03 | 0.03 | 61 | 1010.6 |
| 20260830193040 | 21 | 287 | 1.6 | 6.4 | 0.00 | 0.03 | 0.03 | 60 | 1010.6 |
| 20260830191536 | 21 | 288 | 1.6 | 4.8 | 0.00 | 0.03 | 0.03 | 59 | 1010.5 |
| 20260830190036 | 21 | 289 | 1.6 | 4.8 | 0.00 | 0.03 | 0.03 | 58 | 1010.4 |
| 20260830184533 | 22 | 297 | 1.6 | 8.0 | 0.00 | 0.03 | 0.03 | 57 | 1010.4 |
| 20260830183033 | 22 | 252 | 1.6 | 6.4 | 0.00 | 0.03 | 0.03 | 56 | 1010.2 |
| 20260830181531 | 22 | 305 | 4.8 | 11.3 | 0.00 | 0.03 | 0.03 | 56 | 1010.1 |
| 20260830180030 | 22 | 304 | 4.8 | 12.9 | 0.00 | 0.03 | 0.03 | 54 | 1009.9 |
| 20260830174527 | 23 | 290 | 3.2 | 11.3 | 0.00 | 0.03 | 0.03 | 53 | 1009.7 |
| 20260830173026 | 23 | 290 | 4.8 | 12.9 | 0.00 | 0.03 | 0.03 | 52 | 1009.5 |
| 20260830171526 | 23 | 281 | 6.4 | 17.7 | 0.00 | 0.03 | 0.03 | 51 | 1009.4 |
| 20260830170024 | 24 | 307 | 8.0 | 20.9 | 0.00 | 0.03 | 0.03 | 49 | 1009.3 |
| 20260830164548 | 25 | 289 | 8.0 | 22.5 | 0.00 | 0.03 | 0.03 | 47 | 1009.2 |
| 20260830163027 | 25 | 314 | 4.8 | 16.1 | 0.00 | 0.03 | 0.03 | 46 | 1009.1 |
| 20260830161523 | 25 | 279 | 6.4 | 19.3 | 0.00 | 0.03 | 0.03 | 45 | 1008.9 |
| 20260830160021 | 25 | 315 | 12.9 | 22.5 | 0.00 | 0.03 | 0.03 | 45 | 1008.8 |
| 20260830154521 | 26 | 289 | 12.9 | 33.8 | 0.00 | 0.03 | 0.03 | 45 | 1008.7 |
| 20260830153020 | 26 | 267 | 6.4 | 24.1 | 0.00 | 0.03 | 0.03 | 45 | 1008.7 |
| 20260830151520 | 26 | 254 | 8.0 | 22.5 | 0.00 | 0.03 | 0.03 | 45 | 1008.7 |
| 20260830150020 | 26 | 236 | 12.9 | 35.4 | 0.00 | 0.03 | 0.03 | 44 | 1008.6 |
| 20260830144516 | 26 | 316 | 9.7 | 22.5 | 0.00 | 0.03 | 0.03 | 44 | 1008.7 |
| 20260830143015 | 26 | 326 | 14.5 | 30.6 | 0.00 | 0.03 | 0.03 | 46 | 1008.7 |
| 20260830141528 | 26 | 236 | 19.3 | 32.2 | 0.00 | 0.03 | 0.03 | 49 | 1008.6 |
| 20260830140101 | 25 | 224 | 6.4 | 32.2 | 0.00 | 0.03 | 0.03 | 52 | 1008.7 |
| 20260830134600 | 25 | 198 | 14.5 | 35.4 | 0.00 | 0.03 | 0.03 | 52 | 1008.6 |
| 20260830133059 | 25 | 289 | 9.7 | 27.4 | 0.00 | 0.03 | 0.03 | 51 | 1008.6 |
| 20260830131557 | 25 | 230 | 11.3 | 33.8 | 0.00 | 0.03 | 0.03 | 53 | 1008.6 |
| 20260830130105 | 25 | 286 | 6.4 | 30.6 | 0.00 | 0.03 | 0.03 | 56 | 1008.6 |
| 20260830124555 | 24 | 193 | 14.5 | 29.0 | 0.00 | 0.03 | 0.03 | 56 | 1008.6 |
| 20260830123112 | 23 | 229 | 20.9 | 35.4 | 0.00 | 0.03 | 0.03 | 56 | 1008.8 |
| 20260830121601 | 23 | 216 | 11.3 | 24.1 | 0.00 | 0.03 | 0.03 | 57 | 1008.7 |
| 20260830120056 | 23 | 166 | 17.7 | 35.4 | 0.00 | 0.03 | 0.03 | 56 | 1008.7 |
| 20260830114605 | 24 | 209 | 14.5 | 37.0 | 0.00 | 0.03 | 0.03 | 56 | 1008.7 |
| 20260830113052 | 23 | 211 | 12.9 | 38.6 | 0.00 | 0.03 | 0.03 | 58 | 1008.7 |
| 20260830111551 | 23 | 208 | 16.1 | 40.2 | 0.00 | 0.03 | 0.03 | 61 | 1008.5 |
| 20260830110050 | 23 | 232 | 14.5 | 30.6 | 0.00 | 0.03 | 0.03 | 63 | 1008.6 |
| 20260830104553 | 23 | 244 | 6.4 | 22.5 | 0.00 | 0.03 | 0.03 | 62 | 1008.8 |
| 20260830103049 | 23 | 235 | 20.9 | 37.0 | 0.00 | 0.03 | 0.03 | 60 | 1008.7 |
| 20260830101555 | 23 | 230 | 12.9 | 33.8 | 0.00 | 0.03 | 0.03 | 59 | 1008.7 |
| 20260830100048 | 24 | 254 | 19.3 | 45.1 | 0.00 | 0.03 | 0.03 | 56 | 1008.5 |
| 20260830094546 | 25 | 223 | 11.3 | 33.8 | 0.00 | 0.03 | 0.03 | 55 | 1008.4 |
| 20260830093045 | 25 | 252 | 9.7 | 30.6 | 0.00 | 0.03 | 0.03 | 56 | 1008.3 |
| 20260830091542 | 24 | 230 | 12.9 | 33.8 | 0.00 | 0.03 | 0.03 | 56 | 1008.4 |
| 20260830090040 | 24 | 252 | 11.3 | 37.0 | 0.00 | 0.03 | 0.03 | 57 | 1008.2 |
| 20260830084545 | 23 | 308 | 11.3 | 30.6 | 0.00 | 0.03 | 0.03 | 58 | 1008.2 |
| 20260830083035 | 23 | 334 | 16.1 | 32.2 | 0.00 | 0.03 | 0.03 | 60 | 1008.1 |
| 20260830081545 | 23 | 227 | 11.3 | 33.8 | 0.00 | 0.03 | 0.03 | 62 | 1008.3 |
| 20260830080029 | 22 | 259 | 14.5 | 32.2 | 0.00 | 0.03 | 0.03 | 63 | 1008.3 |
| 20260830074529 | 22 | 323 | 9.7 | 30.6 | 0.00 | 0.03 | 0.03 | 64 | 1008.2 |
| 20260830073028 | 22 | 213 | 11.3 | 24.1 | 0.00 | 0.03 | 0.03 | 65 | 1008.2 |
| 20260830071524 | 21 | 175 | 11.3 | 27.4 | 0.00 | 0.03 | 0.03 | 66 | 1008.2 |
| 20260830070026 | 21 | 213 | 9.7 | 25.7 | 0.00 | 0.03 | 0.03 | 68 | 1008.2 |
| 20260830064517 | 20 | 192 | 8.0 | 22.5 | 0.00 | 0.03 | 0.03 | 71 | 1008.2 |
| 20260830063019 | 19 | 219 | 6.4 | 19.3 | 0.00 | 0.03 | 0.03 | 75 | 1008.2 |
| 20260830061513 | 19 | 229 | 8.0 | 22.5 | 0.00 | 0.03 | 0.03 | 75 | 1008.2 |